Location: Vancouver
(49.2500°N, 123.1330°W)
Time: 15:31:20
(UTC-07:00)

Cosmos 2333 Rocket - Visible Passes

Search period start: 28 July 2014 00:00
Search period end: 07 August 2014 00:00
Orbit: 838 x 864 km, 70.9° (Epoch: 28 July)

Date Brightness Start Highest point End Pass type
(mag) Time Alt. Az. Time Alt. Az. Time Alt. Az.
28 Jul 2.8 00:14:12 10° NW 00:19:40 45° WSW 00:21:43 33° SSW visible
28 Jul 3.2 22:17:37 10° NNW 22:22:59 38° NE 22:27:37 13° ESE visible
29 Jul 2.8 00:01:54 10° NW 00:07:23 46° WSW 00:09:37 31° SSW visible
29 Jul 3.2 22:05:19 10° NNW 22:10:41 38° NE 22:15:33 12° ESE visible
29 Jul 2.9 23:49:37 10° NW 23:55:05 46° WSW 23:57:33 29° SSW visible
30 Jul 3.1 21:53:02 10° NNW 21:58:24 38° NE 22:03:30 11° ESE visible
30 Jul 2.9 23:37:19 10° NW 23:42:47 46° WSW 23:45:30 27° SSW visible
31 Jul 3.1 21:40:44 10° NNW 21:46:06 38° NE 21:51:26 10° ESE visible
31 Jul 2.9 23:25:01 10° NW 23:30:30 46° WSW 23:33:30 25° SSW visible
01 Aug 3.1 21:28:26 10° NNW 21:33:48 38° NE 21:39:08 10° ESE visible
01 Aug 2.9 23:12:43 10° NW 23:18:12 46° WSW 23:21:32 22° S visible
02 Aug 3.0 23:00:26 10° NW 23:05:54 46° WSW 23:09:36 20° S visible
03 Aug 3.0 22:48:08 10° NW 22:53:37 46° WSW 22:57:43 17° S visible
04 Aug 3.0 22:35:50 10° NW 22:41:19 46° WSW 22:45:52 15° S visible
05 Aug 3.1 22:23:33 10° NW 22:29:01 46° WSW 22:34:04 12° S visible
06 Aug 3.1 22:11:15 10° NW 22:16:44 46° WSW 22:22:10 10° S visible
